CAPE
1002 1237 1479 1816 1975 2328 2150 2134 2295 2315 2324 2101 1974 1614 1190 2138 2312 2502 2575 2486 2619 2656 2578 2965 2902 2749 2836 3093 2942 2807 2615 2632 2609 2819 2779 2776 2731 2697 2744 2410 2587 2213 2698 2522 2354 2543 2815 2441 2496 2850 2992 3119 3142 3195 3311 3060 2961 2804 2776 2777 2792 2803 2817 2718 2905 2491 2818 2634 2824 2771 2690 2996 2892 2947 2778 2684 2596 2687 2878 2942 2867 2766 2764 2686 2523
1154 1358 1616 1773 2153 2139 2199 2250 2329 2366 2362 2370 2456 2457 2148 2458 2469 2736 2959 2895 2952 2990 3003 3006 2582 2823 2766 2895 2865 2755 2706 2468 2471 2549 2604 2498 2412 2313 2595 2650 2649 2760 2470 2626 2803 2591 2787 2882 2960 3064 3240 3219 3202 3189 3212 3106 3044 2876 2821 2770 2719 2707 2777 2902 2996 2971 2919 2775 2951 2915 2718 2866 2955 2895 2800 2758 2648 2840 2930 2863 2719 2539 2636 2447 2632
1340 1728 1788 2047 2228 2229 2278 2267 2408 2416 2246 2420 2567 2108 2257 2525 2592 2678 2864 3113 3022 3085 3105 3151 3305 2993 2805 2826 2832 2823 2774 2654 2682 2642 2591 2416 2390 2590 2892 2850 2673 2400 2745 2726 2385 2455 3088 3116 3046 2993 2978 3172 3202 3156 2740 2423 2660 2665 2674 2716 2825 2747 2791 2776 2700 2799 3051 2988 3055 3042 2759 2831 2768 2764 2760 2763 2790 2687 2812 2769 2776 2660 2497 2559 2665
1740 1786 1911 2289 2311 2228 2230 2366 2498 2268 2212 2206 2383 2240 2349 2416 2665 2559 2612 3074 3038 3127 3211 3157 3153 3052 3166 3084 2951 2796 2797 2787 2623 2749 2773 2718 2675 2571 2694 2675 2600 2989 2700 2505 2708 2781 2962 2832 2752 2841 2593 2729 2971 2681 2760 2623 2616 2716 2661 2766 2804 2845 2767 2685 2711 2790 2917 2953 2912 2917 2782 2358 2664 2626 2563 2318 2484 2632 2735 2670 2684 2678 2633 2466 2589
1793 1873 1977 1983 2225 2200 2313 2408 2561 2430 2543 2631 2406 2633 2420 2478 2590 2518 2824 3234 3315 3277 3249 3129 3061 2994 2949 2924 2921 2884 2767 2589 2859 2769 2872 2811 2441 2413 2486 2600 2571 2519 2537 2457 2863 3277 3134 3089 2841 2659 3064 2772 2811 2636 2807 2621 2668 2826 2649 2804 2856 2807 2672 2615 2612 2712 2762 2869 3026 2583 2322 2504 2598 2424 2318 2362 2410 2543 2494 2549 2529 2480 2347 2436 2506
1822 1916 1993 1913 1946 2546 2472 2500 2634 2808 2547 2738 2641 2390 2524 2509 2738 2582 2692 3260 3349 3188 3016 3072 3080 2926 2922 2828 2796 2903 2564 2938 2843 2779 2793 2663 2423 2651 2616 2336 2528 2375 2432 2400 2915 2914 2671 2657 2442 2815 2929 2794 2911 3059 2895 3028 3318 3522 3476 3010 2778 2735 2695 2685 2719 2754 2885 2918 2714 2166 2237 2560 2623 2411 2251 1935 1956 2144 2218 2268 2238 2310 2469 2514 2560
1795 1922 2057 2031 2054 2451 2509 2634 2813 2710 2707 2848 2660 2644 2835 2729 2711 2696 2950 3020 2970 2732 2789 2720 2896 2798 2655 2916 2871 2963 2922 3031 2976 2803 2762 2744 2436 2682 2654 2642 2822 2523 2251 2650 2706 3170 2949 2807 2746 2680 3035 3162 3316 3167 3200 3201 3215 3378 3520 3128 2837 2762 2693 2707 2728 2774 2674 2175 2118 2217 2320 2421 2576 2380 2040 2245 2105 1914 1754 1799 1957 2102 2225 2400 2494
1812 2013 2085 1991 2091 2575 2581 2740 2859 2772 2961 2689 2645 2610 2688 2783 3027 2850 2740 2452 2545 2582 2844 2865 2955 2903 2785 2995 2972 3028 2907 2566 2540 2935 2768 2744 2749 2761 2958 2854 2838 2666 2619 2766 3180 3121 3042 2778 2898 2959 2973 3213 3244 2544 2490 2911 2928 3412 3462 3164 2863 2709 2704 2704 2786 2700 2553 1990 2136 2243 2308 2492 2556 2415 2320 2196 2222 2351 2208 1398 1364 1816 1942 1916 2092
1837 1996 2036 1962 2202 2630 2718 2855 2858 2849 2838 2614 2581 2621 2735 2909 2906 2844 2895 2709 2404 2709 2771 2837 2759 2752 3031 2884 2791 2776 2935 2718 2699 2660 3023 2720 2541 2768 3142 2873 2684 2826 2761 2904 3429 3018 3074 2972 2718 2627 2464 3053 2505 3152 3300 3076 2988 2795 2689 2839 2922 2859 2913 2840 2734 2622 2127 2079 2137 2299 2376 2386 2498 2524 2309 2403 2365 2345 2483 2484 1828 1468 1788 2090 1870
1882 1986 1898 1977 2180 2701 2721 2926 2745 2628 2622 2648 2757 2713 2652 2691 2911 2906 2734 2470 2465 2431 2652 3037 2813 2824 2720 2641 2798 2829 2845 2811 3108 3079 3013 2806 2722 2890 2936 2839 2735 2619 2828 3164 3249 3048 3059 3082 3089 2902 2779 3170 2620 2828 3073 3051 3156 3085 2791 2842 2929 2995 3062 2864 2810 2865 2088 2280 2393 2503 3013 2790 2412 2665 2508 2459 2197 2138 1360 1492 1654 1384 1099 1427 1916
1852 1887 1851 2034 2375 2786 2824 2918 2822 2717 2578 2704 2817 2668 2732 2657 2798 2540 2457 2066 1985 2498 2952 2756 2805 2713 2718 2840 2753 2817 2901 3084 3141 3016 2925 2684 2644 2732 2548 2722 2670 2461 2713 2920 3053 3081 3048 3019 3172 3328 2785 3039 3434 3499 3198 3223 3497 3482 3076 2879 3008 3080 3094 3045 2719 2141 2228 2252 2236 2330 2760 2852 2499 2897 2812 2756 2711 2468 2054 2136 1888 1703 1387 970 1117
1758 1810 1940 2126 2808 2865 2715 2840 2844 2664 2661 2760 2660 2640 2544 2514 2602 2223 2100 2122 2189 2584 2819 2230 2792 2771 2739 2802 2852 2734 2701 3001 3024 2869 2594 2574 2600 2609 2798 2831 2906 2574 2723 2701 3028 3004 3040 3046 3170 3483 3594 3475 3353 3438 3451 3248 3146 3171 3075 2764 2759 3007 3290 3082 2116 2058 2089 2103 2648 2562 2185 2326 2580 2731 2790 3003 2838 2666 2610 2341 2377 2211 2003 2082 1573
1725 1861 1986 2157 2531 2704 2645 2675 2717 2763 2730 2705 2555 2634 2484 2633 2309 2226 2287 2112 2362 2529 2279 2283 2447 2614 2615 2694 2765 2729 2627 2646 2472 2471 2364 2573 2810 3067 2804 2869 2652 2687 2671 2832 2957 3025 3205 3298 3405 3587 3542 3374 3370 3357 3413 3410 3160 3042 2958 2579 2825 3049 3177 2987 1886 1904 1899 1942 2075 2040 2158 2445 2750 2831 2708 2987 2918 2963 2617 2512 2441 2297 2048 2002 2112
1790 1931 2142 2247 2440 2571 2636 2609 2709 2611 2604 2614 2533 2425 2310 1968 1938 1967 2169 2197 2557 2427 2178 2402 2291 2507 2704 2479 3048 2745 2621 2536 2685 2656 2658 2763 2759 2841 2633 2623 2287 2340 2635 2811 3185 3207 3304 3473 3424 3298 3239 3019 2989 3148 3152 3073 3050 3044 2939 3075 2972 3189 3203 2999 2325 1868 2134 2110 2584 2370 2020 2819 2996 2729 2693 2668 2719 2862 2864 2804 2775 2504 2429 2134 2045
1851 2094 2173 2196 2501 2369 2597 2519 2491 2537 2451 2392 2220 1975 1520 1668 1822 1887 1900 1986 2200 2158 2276 2407 2412 2388 2564 2517 2564 2619 2534 2525 2664 2621 2860 2730 2528 2684 2327 2314 2580 2492 2550 3066 3134 3179 3326 3386 3164 3019 2866 2869 2851 2988 2972 2953 3072 3187 3336 3398 3433 3013 3535 2280 1887 1823 1971 2419 2622 2170 1928 2070 2711 2252 1940 2106 2265 2037 2062 2355 2406 2737 2718 2312 2239
1993 2119 2221 2158 2145 2135 2558 2412 2280 2279 2226 2097 2078 1973 2014 1705 1740 1844 1838 1902 2042 2338 2235 2206 2238 2213 2422 2590 2507 2539 2490 2634 2692 2806 2682 2403 2485 2455 2521 2522 2429 2773 2914 3127 3085 3205 3183 3083 2928 2893 2710 2962 3048 3122 2968 3154 3276 3183 3350 3554 3595 3308 3587 2410 1864 1807 2097 2201 2192 2836 2253 2541 2182 2004 2103 1909 1817 1985 2021 2031 2034 2035 2376 2748 2538
2142 2140 2033 2040 2087 1924 2170 1938 1962 1915 1962 2024 1824 1758 1930 1805 1686 1752 1678 1617 1761 1988 1996 2078 1992 2005 2211 2432 2327 2494 2543 2660 2745 2692 2530 2417 2393 2462 2469 2795 2886 2955 3098 3063 3046 2996 3026 2832 2869 2657 2766 2841 3143 3115 3079 3055 3155 3005 3364 3429 3519 3190 3697 2814 1710 1852 1957 2435 2517 2224 2023 2491 2224 1910 2095 2125 2148 2270 2149 2048 2052 1723 1887 1760 2168
1902 1914 1832 1872 1859 1772 1764 1627 1740 1677 1747 1618 1774 1920 1849 1746 1714 1623 1502 1643 1687 1738 1798 1814 1851 1937 2066 2202 2330 2565 2554 2689 2650 2654 2553 2375 2707 2884 3027 2956 2961 2919 2882 2948 3160 3194 3114 3012 2964 2920 3238 3379 3325 3334 3459 3730 3594 3666 3542 3264 3403 3215 3849 3006 1893 1789 1862 2544 2380 2236 2410 2888 2320 2236 2135 2192 2231 2214 2301 2418 2302 2245 2253 2164 2042
1763 1765 1696 1684 1722 1623 1584 1462 1405 1372 1484 1509 1511 1719 1638 1661 1600 1544 1579 1700 1498 1696 1900 1325 1689 1930 1919 2146 2150 2329 2536 2661 2718 2587 2586 2676 2940 2968 2940 3007 2948 2987 3092 3251 3360 3247 3169 3146 2904 3178 3193 3322 3609 3376 3787 3740 3663 3619 3634 3360 3701 4036 3716 3201 1918 1674 2112 2762 2203 2018 2064 2472 2539 2059 2318 2152 1825 1895 1974 2254 2321 2269 2373 2132 2146
1673 1648 1618 1631 1615 1533 1488 1365 1396 1412 1353 1319 1387 1249 1573 1564 1576 1435 1607 1557 1399 1288 1539 1596 1888 1893 2019 2027 1901 2253 2068 2334 2434 2490 2613 2851 3016 2925 2920 2980 3059 3002 3155 3294 3334 3150 3295 3330 3438 3618 3514 3667 3380 4217 3863 3551 3741 3760 3990 4140 4397 3710 3416 2846 1854 1695 2081 2306 2470 2118 2046 2572 2987 2363 2512 2594 2444 1915 2013 2286 2461 2475 2546 2392 1928
1535 1465 1434 1431 1450 1450 1435 1430 1416 1363 1362 1330 1343 1074 1189 1210 1230 1351 1269 1569 1541 1403 1327 1585 1727 1835 1796 1953 1979 2033 1877 1950 2517 2614 2683 3168 2963 2935 3036 3172 3048 3221 3345 3378 3380 3334 3450 3371 3480 3554 3534 3690 4390 4195 4202 4376 4591 4669 4753 4878 4018 2706 2199 1943 1856 2067 2030 2218 2774 2153 2139 2650 2759 2338 2424 2560 2898 2456 2070 2064 2496 2576 2701 2374 2420
1389 1337 1251 1168 1204 1232 1234 1231 1308 1352 1399 1432 1291 1095 1406 1329 1132 1185 1340 1354 1325 1225 1408 1347 1542 1618 1750 1959 2170 2314 1976 2160 2373 3158 3076 3085 2908 3049 3106 2970 3291 3359 3302 3388 3321 3634 3620 3643 3696 3953 4016 4164 3945 2862 2936 3296 3873 4231 4636 4488 2698 2521 2392 2226 1983 1926 2224 1874 2626 2428 2507 2846 2554 2380 2582 2744 2679 2487 2398 2091 2344 2552 2599 2604 2242
1096 1101 1056 1043 1054 1052 1262 1319 1348 1373 1382 1389 1309 1306 1179 1173 1078 1008 1066 1069 1086 1266 1253 1105 1360 1444 1817 1872 2128 2020 2124 2387 2674 2884 3048 3173 2872 2916 3114 3277 3412 3379 3573 3630 3723 3720 3585 3529 3283 3180 3317 3270 2624 2491 2577 2557 2495 3491 3559 2846 2639 2588 2396 2091 2009 1820 2200 1860 2361 2326 2577 2900 2868 2883 2912 2739 2598 2758 2719 2516 2440 2492 2764 2504 2239
934 852 911 1018 921 1087 1297 1324 1352 1360 1355 1363 1333 1144 1117 1099 1074 978 968 1036 1011 1012 1342 1412 1498 1548 1772 1914 2092 2140 2252 2498 2854 3206 3624 2366 2844 3080 3169 3717 3692 3662 3732 2507 3091 2990 3138 2983 3255 3334 2556 2468 2250 2274 2372 2433 2606 2718 2802 2853 2692 2619 2397 1918 1969 1834 1866 2070 2485 2509 2832 2984 3093 3037 3056 2957 2895 2852 2897 2803 2574 2720 2634 2685 2572
877 862 1007 950 1025 1207 1477 1352 1358 1353 1319 1180 1159 1158 1091 1044 1090 1099 1065 1052 1106 1296 1332 1535 1638 1746 1795 1908 2027 2171 2415 2551 2585 2481 2374 2419 2692 2898 2692 2702 2684 2638 3588 2230 2019 1972 2142 1828 1873 2052 1978 2173 2415 2527 2468 2576 2748 2688 2743 2768 2625 2577 2294 1871 1786 1677 1757 1665 2437 2599 2748 3076 3332 3283 3416 3399 3355 3316 3289 3108 3106 3038 3188 3016 2880
878 851 837 976 1035 1193 1457 1349 1350 1351 1311 1117 1060 1050 1120 1130 1228 1163 1176 1226 1362 1323 1412 1473 1578 1740 1798 1861 2033 2202 2359 2382 2342 2297 2338 2408 2500 2548 2551 2429 2162 2020 2524 2204 2180 2078 2045 1915 1864 1859 1974 2133 2301 2510 2579 3105 2788 2682 2666 2652 2556 2399 1990 1695 1613 1561 1501 1354 2006 2427 2978 3162 3585 3544 3465 3373 3410 3560 3488 3461 3448 3432 3327 3632 3210
927 812 903 986 1043 1348 1521 1304 1305 1262 1241 1200 1158 1159 1160 1238 1212 1173 1258 1333 1430 1426 1334 1559 1554 1649 1786 1873 2028 2117 2221 2229 2192 2236 2301 2396 2456 2413 2228 1802 1875 1896 2161 2226 2277 2224 2124 2109 2038 2120 2049 2192 2342 2456 2522 2497 2570 2564 2665 2507 2377 1904 1606 1418 1503 1625 1665 1612 1898 2515 3122 3196 3647 3710 3683 3759 3707 3658 3832 3688 3761 3829 3883 3840 3858
895 736 818 954 1308 1312 1476 1264 1246 1187 1266 1276 1190 1162 1155 1133 1246 1314 1259 1322 1388 1403 1455 1482 1546 1662 1752 1838 1992 2068 2111 2076 2113 2259 2312 2366 2300 1874 1876 1954 1994 1991 2078 2198 2153 2094 2063 2004 2017 2022 2058 2106 2115 2177 2251 2162 2013 2202 2335 2002 1594 1120 1120 1323 1515 1613 1665 1890 2013 2271 2945 3424 3782 3862 3913 4047 4078 4148 4178 4135 4143 4055 4116 4079 4033
672 711 817 1064 1277 1442 1378 1203 1263 1270 1355 1224 1162 1104 1146 1232 1210 1163 1200 1515 1392 1391 1437 1476 1548 1726 1697 1868 2023 1988 1981 1988 2113 2197 2228 2113 1944 1964 2031 2120 2104 2126 2072 2026 1975 1990 1958 1914 1982 2042 2090 2091 2042 2302 2418 2404 1965 1560 1208 1082 845 984 938 1226 1448 1608 1730 1775 1827 2079 2546 3362 4188 4211 3999 4122 4191 4164 4204 4416 4316 4051 4109 4093 4136
627 688 907 1136 1250 1453 1220 1157 1327 1351 1326 1240 1169 1093 1208 1269 1200 1158 1378 1403 1331 1399 1472 1504 1565 1613 1668 1813 2040 1881 1908 1953 2038 2080 1985 1954 1981 2133 2130 2110 2163 2126 2122 1952 1875 1825 1895 1946 2048 2164 2287 2370 2417 2578 3146 2491 2130 1782 1232 977 886 1048 1029 1167 1336 1487 1637 1783 1891 1907 2540 3159 4121 4443 4192 4188 4423 4516 4579 4669 4484 4110 4172 4278 4278
698 777 886 1045 1349 1390 1164 1289 1354 1690 1288 1143 1153 1180 1342 1223 1164 1238 1331 1242 1308 1413 1470 1526 1579 1600 1658 1764 1802 2039 1828 1869 1969 1961 1975 2018 2108 2117 2131 2111 2089 2067 1927 1813 1787 2077 2217 2307 2272 2424 2599 2856 2866 2789 2948 2772 2190 1804 1556 1121 1191 1233 1306 1272 1235 1438 1548 1660 1827 2007 1922 2734 3428 4657 4724 4767 5010 5083 5055 4704 4454 4322 4255 4495 4461
697 783 878 972 1225 1224 1192 1279 1434 1553 1353 1262 1499 1285 1408 1263 1107 1310 1227 1151 1251 1358 1463 1503 1542 1575 1608 1682 1695 1816 2159 1838 1848 1883 1994 2053 2104 2127 2124 2100 2041 1949 1820 1796 2228 2721 2787 2566 2684 2944 3012 3243 2978 2900 3114 2810 2224 1983 918 821 868 988 1276 1280 1026 1242 1402 1579 1707 1911 2135 2099 2859 3723 4470 4812 4926 5236 5098 4638 4649 4569 4442 4491 4583
650 728 795 992 1191 1180 1153 1297 1433 1520 1283 1288 1365 1369 1409 1343 1263 1372 1142 1161 1253 1314 1427 1467 1491 1538 1531 1571 1613 1720 2334 1894 1881 1907 2861 2015 2091 2077 1980 1961 1867 1783 1876 2375 3164 2915 2541 2605 2917 3121 3066 3312 2930 3172 3414 2749 2433 2219 1018 1028 1148 1119 1037 1231 1545 1636 1728 1542 1542 1684 1891 2203 2536 2970 3654 4287 4541 4826 4836 4710 4668 4735 4761 4629 4556
628 698 778 1041 1134 1113 1197 1277 1383 1276 1248 1304 1372 1434 1418 1329 1473 1414 1404 1164 1168 1258 1428 1448 1489 1459 1475 1505 1620 1716 2085 1836 1791 1862 1891 1993 2002 1994 1917 1754 1591 1715 2203 3068 3168 3026 2604 2618 3196 2589 3434 3209 3067 3161 3385 2918 2684 2323 1554 977 1020 1035 1024 1041 1538 1854 1881 1626 1482 1620 1750 1980 2302 2360 2797 3536 3623 4520 4872 4912 4696 4814 4954 4955 4707
783 646 803 1055 1135 1018 1132 1250 1519 1182 1513 1386 1434 1434 1494 1404 1478 1473 1171 1142 1148 1232 1398 1449 1366 1372 1413 1499 1602 1712 2127 1771 1744 1720 1750 1834 1876 1951 1834 1655 1698 2016 2815 3154 3158 2702 2539 2627 3141 2933 3076 2794 3016 3323 3187 2765 2512 2515 2442 1487 777 805 799 993 1270 1688 1728 1602 1634 1503 1630 1826 2156 2430 2582 2877 3458 3580 4449 4478 4658 4722 4899 5154 5109
699 704 932 1013 907 874 1246 1146 1326 1111 1305 1288 1334 1421 1506 1356 1488 1875 1233 1170 1193 1252 1398 1423 1315 1257 1409 1510 1580 1838 2663 1862 1793 1819 1856 1881 1916 1900 1668 1704 1859 2616 3258 3004 3143 2736 2459 2830 2908 2991 3272 2867 3116 2776 2756 2510 2525 2811 2892 1174 853 1158 838 764 1018 1191 1191 1348 1471 1672 1897 2106 2249 2286 4018 4383 4076 3908 3853 4502 4417 4558 4840 4831 5146
717 789 979 916 825 881 1194 960 1101 1009 1183 1269 1223 1335 1362 1323 1402 1687 1277 1178 1187 1242 1350 1380 1257 1236 1250 1338 1533 2114 2987 2276 1890 1933 1925 2004 1964 1771 1734 1838 2898 3611 3449 3093 2321 3073 2684 2891 2945 3499 3286 3017 2790 2673 2719 2534 2520 2936 2895 820 787 1498 1082 1102 937 772 886 1155 1274 1586 1990 2274 2661 4080 4466 4259 4165 4116 3631 3704 3755 4067 4739 5199 4888
811 856 906 814 762 857 940 796 932 943 1065 1108 1053 1097 1198 1333 1582 1639 1776 1156 1180 1253 1351 1372 1362 1311 1292 1346 1574 2609 3361 2412 2141 1981 1970 1984 1838 1704 1934 2642 3597 3600 3162 2485 2363 2508 2643 2917 3244 3032 3335 2806 2758 2704 2721 2384 2473 2839 1735 816 716 622 705 709 720 2275 1199 1008 1332 1498 1726 1920 2372 2744 3434 3921 4099 4180 3896 3060 2645 2902 3829 4637 5094
829 827 825 759 715 812 775 922 761 890 964 1024 1010 929 1172 1466 1485 1445 1509 1196 1230 1351 1428 1333 1329 1390 1368 1401 2090 3023 3856 2773 2581 2406 1982 2059 2420 2086 2483 3168 3408 3206 2964 2205 2386 3048 3142 3476 3503 3305 2919 2847 2744 2733 2540 2160 2982 1076 1470 775 586 519 693 1132 2218 1336 1300 1007 1337 2396 1677 1874 2350 3084 3366 3707 3974 3958 3782 3292 2842 2922 3144 3423 4622
777 772 755 772 710 741 618 716 685 824 842 930 807 951 1218 1380 1275 1318 1430 1332 1290 1419 1434 1342 1346 1415 1633 1978 2645 2917 3141 3135 2805 2593 2304 2687 2399 2458 2854 3079 3556 3896 3112 3129 3414 3709 3601 3850 3641 3595 3086 3015 3353 2587 2036 1387 885 507 961 506 412 655 1432 2739 1274 1229 1593 1301 1246 1965 2102 1950 2306 2181 2102 2226 2712 3092 3341 3132 3791 3332 3664 3593 3745
684 653 644 766 730 654 500 587 621 742 726 794 693 973 1133 1203 1141 1194 1293 1347 1282 1306 1324 1320 1540 1636 2123 2484 2826 2933 2774 2609 2688 2497 2421 3453 2643 2504 2761 2835 3526 4088 3648 3606 4227 4059 4478 3803 3600 2805 3357 2918 2680 2586 2307 1284 420 480 363 328 380 632 2143 1885 936 686 887 1116 1109 1246 1930 1947 1918 1883 1791 2026 2206 2434 2931 3167 3012 3135 3502 3895 3713
568 559 548 721 795 607 404 463 543 654 651 693 713 942 1068 1019 1011 1096 1145 1231 1302 1403 1298 1435 1759 2177 2510 2584 2862 2867 2678 2372 3314 2815 3012 3119 2664 2742 2668 2680 3130 3647 4260 3586 4158 3882 3127 3039 2927 2917 2775 2902 2705 2656 2487 1080 756 485 386 469 603 601 1640 981 594 674 763 825 869 963 1355 1659 1746 1530 1606 1936 1970 2199 2710 3238 3234 3247 3383 3692 3797
521 564 529 644 788 637 368 400 457 566 589 622 651 783 885 859 883 978 1009 1094 1053 1221 1376 1642 2278 2383 2472 2490 2855 2839 2641 2542 3384 3930 3074 2886 2712 2748 2841 2756 3177 3335 3280 2576 2976 2718 2791 2801 2995 3228 2992 2386 2988 3322 3068 1686 1003 1096 399 327 443 256 815 478 715 819 572 632 721 824 1240 1384 1382 1279 1624 1917 1861 2081 2216 2694 2901 3041 3121 3337 3738
496 565 567 644 730 646 454 365 395 501 529 648 1011 570 611 707 799 826 885 889 930 1481 1385 1787 2164 2319 2437 2460 2675 2895 2749 2658 3152 3939 3093 2948 2896 2714 2554 2717 2778 3376 2932 2856 3114 2922 2827 2937 2920 3476 2844 2541 2286 2231 3429 2184 1009 494 722 1268 478 754 439 508 553 736 612 639 635 784 984 1212 1165 1336 1788 1812 1705 2023 2285 2321 2564 2891 3030 3276 3498
496 565 594 620 642 609 559 400 379 478 496 986 989 576 975 675 674 726 905 1015 1201 1173 1384 1740 2026 2406 2414 2482 2613 2801 2838 2737 3003 3759 3110 2931 3064 2832 2787 2885 3179 3062 3026 3292 3244 2874 3038 2870 2953 2962 3004 2558 2469 2029 1956 2854 2252 1394 864 786 668 707 713 710 786 643 571 620 655 730 2440 1632 1293 1664 1861 1862 1702 1776 1958 2331 2774 2916 3003 3054 3086
511 538 561 559 566 570 551 495 395 458 479 703 793 660 1052 602 617 734 800 840 976 1084 1246 1486 1865 2180 2517 2324 2486 2619 2703 2750 2820 3371 2883 2664 2798 2850 2886 3013 2818 3678 3420 3012 2939 2371 2256 2563 3510 2805 3027 3183 2317 2107 2212 2525 2293 2790 1748 1779 1001 679 742 868 598 453 349 384 568 753 916 953 944 1026 1422 1726 1665 1622 2132 2360 2569 2662 2540 2441 2481
537 513 512 521 504 512 524 502 413 474 488 652 748 959 725 632 674 802 822 812 862 995 1075 1268 1726 1926 2202 2230 2432 2554 2620 2696 2782 2981 3099 2885 2446 2356 2415 2426 2647 3102 4382 3446 3120 2645 2239 2486 4289 2743 3237 3727 2076 2251 2244 1982 1902 2063 1994 1725 2754 3025 1344 782 624 265 348 388 474 594 777 827 877 755 606 938 1370 1547 1754 1915 2070 1979 2042 1975 1943
558 512 466 459 470 518 517 481 464 688 526 720 718 837 678 669 775 795 783 746 816 949 1105 1297 1579 2027 2076 2175 2338 2458 2542 2592 2668 2748 2832 2827 2742 2292 2326 2401 2661 2644 3535 4268 3328 2754 2646 2633 3867 2865 3320 3210 2441 2277 2184 1994 1865 1961 2294 1307 1628 1423 1482 982 292 279 282 393 523 477 598 726 721 551 467 578 868 1128 1366 1614 1474 1298 1761 1899 2055
560 536 445 441 517 556 572 514 500 673 560 951 799 757 702 689 774 764 802 812 824 963 1258 1896 1776 2382 2010 2095 2205 2364 2419 2494 2576 2612 2592 2548 3287 2856 2334 2468 2755 2708 4358 4815 4198 2956 2436 2550 2367 2493 2572 2908 3694 2678 2127 2189 1860 1935 1527 1385 1002 809 762 1083 832 435 351 360 360 338 514 536 372 450 475 718 777 666 1011 1081 1310 2289 2569 2492 2088
515 532 470 475 574 623 670 625 522 592 699 1021 1004 753 714 750 758 705 711 774 1032 1054 1225 1610 1624 1939 1999 2012 2101 2196 2294 2330 2471 2565 2518 2498 2536 3291 2786 2582 2724 2674 4200 3791 3057 2824 2514 2439 2465 2710 2880 2442 2385 3163 2733 2148 2076 1952 1414 1121 1084 1136 1050 844 700 481 600 666 672 388 313 430 597 606 649 959 1614 1520 982 1375 1613 1652 1849 2117 2200
430 477 494 530 624 669 694 648 579 663 961 1060 965 769 681 684 767 652 711 779 862 988 1217 1495 1622 1768 1923 1973 2031 2111 2176 2232 2332 2467 2506 2499 2423 3053 3116 2653 2636 3521 4310 3005 2485 2075 2116 2338 2487 2960 3442 2444 2436 2216 3009 2517 2201 2025 1684 1302 1048 958 968 818 832 664 607 582 559 663 522 798 674 915 1146 1304 2524 1229 1040 1511 1454 1417 1963 2209 2428
Wind_Speed
10 9 9 11 9 10 9 7 4 4 4 2 6 7 5 1 2 3 5 3 4 7 8 8 8 8 8 9 10 9 8 8 7 7 7 6 6 7 7 8 6 6 6 7 8 7 6 8 9 8 7 4 2 2 2 3 3 2 2 3 3 2 2 3 4 4 6 5 4 5 5 5 5 6 6 7 8 9 9 9 9 11 12 11 12
7 8 8 9 10 10 9 5 3 3 5 8 8 8 8 6 5 4 4 6 7 9 10 10 10 9 9 10 10 9 8 8 8 8 8 7 7 8 8 8 8 6 7 6 5 7 7 8 8 7 5 3 2 2 3 3 4 3 3 3 1 2 5 7 8 8 7 6 6 6 5 5 6 7 8 9 10 10 11 12 12 14 15 13 13
4 4 7 7 8 8 7 3 3 4 5 6 6 4 4 4 4 5 4 7 9 10 10 10 10 10 10 10 10 8 7 7 7 8 9 9 9 8 8 7 7 6 6 5 5 5 7 7 7 6 4 3 2 3 4 2 4 4 3 1 2 5 7 8 8 8 8 8 8 9 8 6 6 7 9 10 11 11 12 13 15 16 17 15 15
3 2 5 5 4 4 2 2 2 2 5 4 3 5 3 3 6 5 5 7 9 10 9 9 9 9 9 10 9 8 7 7 8 8 9 10 11 8 6 7 7 6 4 4 5 4 6 7 6 5 4 3 4 5 3 3 3 2 2 3 6 7 8 8 8 8 8 9 10 12 14 15 12 9 10 11 12 13 14 16 17 18 18 18 17
3 1 3 4 4 3 2 2 2 1 1 3 5 4 3 4 7 7 6 8 8 8 8 8 8 8 7 8 8 7 7 7 8 8 8 10 11 4 6 6 5 5 4 5 3 4 5 5 4 5 4 4 2 4 4 4 3 3 5 7 8 8 8 8 8 9 9 9 10 13 15 14 14 11 11 12 13 14 15 17 18 19 19 20 20
3 1 1 2 3 4 1 2 2 0 1 2 2 4 3 5 7 7 5 7 8 8 7 8 8 7 6 6 6 7 7 8 8 6 7 8 9 6 5 6 6 4 5 4 5 4 4 3 6 3 5 2 2 2 2 2 4 7 9 11 9 9 8 9 9 9 9 10 12 15 15 15 15 14 12 14 16 16 17 18 20 21 22 22 22
4 1 1 0 2 2 2 3 2 1 1 2 3 4 5 5 6 5 6 6 6 7 7 8 7 6 6 5 5 6 7 6 5 5 6 7 7 6 5 6 6 4 6 3 4 4 3 3 5 5 3 2 1 1 1 3 5 9 11 9 9 9 9 9 9 9 9 13 16 16 16 15 14 15 15 16 18 18 19 21 23 25 26 26 24
2 1 1 1 1 1 2 2 2 1 2 3 4 5 5 6 6 6 5 5 6 7 8 7 7 7 5 3 4 5 6 5 4 5 6 6 7 6 5 6 6 6 5 2 5 3 3 4 4 5 5 3 2 2 2 2 6 10 9 8 8 9 9 10 9 8 9 14 15 15 15 15 14 16 16 17 19 20 21 23 25 26 27 27 25
2 3 2 1 1 4 2 1 1 2 3 5 5 5 5 6 6 6 6 7 7 7 8 7 7 7 5 4 4 5 5 5 6 6 6 5 5 7 5 5 5 6 4 2 4 3 3 4 6 6 5 2 2 2 2 5 8 9 7 8 9 10 10 10 9 9 13 15 15 15 14 15 16 18 16 17 19 19 21 23 25 26 27 27 27
3 2 1 1 2 2 2 2 1 2 5 6 7 6 6 6 6 7 7 10 14 9 7 7 7 7 5 5 4 4 6 7 7 6 5 4 5 7 6 5 5 5 2 1 3 3 4 6 7 5 2 2 1 1 3 7 10 10 8 8 10 10 11 10 9 11 13 14 13 14 13 13 17 17 16 16 16 19 22 25 27 28 28 29 28
3 1 1 1 0 4 4 3 3 2 5 6 7 7 6 6 7 7 11 13 4 2 6 7 8 7 6 5 4 5 7 7 6 4 4 5 5 6 7 6 6 5 1 3 3 3 5 6 7 6 5 4 4 4 3 8 10 11 10 10 11 12 12 11 11 14 13 12 12 14 15 11 16 16 14 15 16 18 21 25 26 26 27 28 29
4 2 1 0 3 5 5 5 4 3 4 5 5 6 6 6 7 11 11 8 5 5 8 7 8 7 6 5 5 5 7 7 5 4 4 5 6 7 7 6 5 4 3 3 3 3 6 7 7 7 6 5 5 7 10 10 10 11 10 11 12 13 13 11 13 13 12 11 12 13 14 15 17 15 12 14 16 19 22 22 22 23 22 26 28
4 2 1 1 1 5 6 7 6 5 4 4 4 4 5 5 8 10 8 8 6 8 9 6 7 8 7 5 6 6 8 7 5 5 5 6 6 7 7 6 5 5 5 4 3 5 7 8 8 8 7 6 7 10 13 13 12 12 11 12 14 15 14 12 13 11 11 11 13 13 14 15 15 13 12 12 14 17 19 22 24 24 26 26 27
4 2 1 2 2 7 8 7 6 6 5 4 4 3 4 14 12 6 7 7 6 8 8 7 7 7 6 6 5 6 6 6 6 6 6 5 6 7 7 4 5 5 5 4 4 6 8 9 9 9 8 8 9 12 15 15 15 13 12 13 16 16 15 12 12 11 11 12 13 14 15 15 15 13 11 11 12 15 17 19 21 23 25 26 29
4 2 1 1 2 3 7 6 6 6 5 5 4 9 11 8 5 4 5 4 7 7 7 7 8 6 7 6 6 5 5 5 6 6 6 6 6 6 6 6 4 5 4 3 5 7 9 9 9 9 8 9 12 15 17 17 16 16 16 16 16 18 14 13 13 12 12 13 14 14 16 17 16 14 12 12 13 13 14 16 18 22 24 27 30
3 2 1 2 2 2 3 3 3 3 3 4 7 9 11 7 3 6 5 3 5 6 5 8 8 6 7 6 7 5 5 6 6 7 6 5 6 8 7 5 5 5 3 4 7 8 10 10 9 9 9 11 13 17 18 18 17 17 18 18 18 18 14 12 13 13 13 14 15 16 17 18 17 16 14 13 13 14 15 16 17 20 23 28 30
2 3 4 3 4 3 5 6 4 5 5 6 8 9 8 7 4 7 4 1 3 4 7 7 8 6 6 6 7 5 5 6 6 7 8 7 8 7 5 6 6 6 5 6 8 10 11 11 10 10 11 12 14 17 19 19 17 18 19 19 18 15 15 12 13 13 13 13 15 17 18 18 19 17 15 15 16 16 16 17 19 21 24 26 28
4 4 4 4 4 4 4 4 4 2 3 3 4 7 7 5 4 7 5 1 3 5 8 7 8 3 2 7 7 6 5 6 6 7 8 8 7 6 6 6 7 6 7 8 10 12 12 11 11 11 12 13 16 18 19 19 18 19 20 19 17 16 15 12 13 13 13 15 16 18 18 21 22 20 19 18 19 19 19 21 23 26 28 30 29
3 4 3 3 3 3 3 1 2 1 2 1 3 3 6 5 4 5 5 3 4 7 7 9 5 3 6 9 9 8 7 9 8 7 8 10 8 7 6 6 6 7 8 10 12 13 13 12 11 12 13 15 17 19 20 19 18 20 19 20 17 18 15 12 13 13 14 16 18 19 20 25 25 22 22 22 22 23 23 24 25 30 34 33 31
2 2 2 2 2 2 1 0 1 1 1 2 4 6 3 4 4 3 4 5 9 7 6 10 3 6 4 6 9 9 7 9 8 9 9 11 8 7 6 6 6 8 10 11 13 14 13 12 12 13 14 15 18 19 19 19 20 21 21 20 16 16 12 12 13 14 15 18 19 20 22 27 27 24 24 24 25 24 24 25 27 32 38 35 31
2 0 0 1 2 2 3 2 1 1 1 1 2 1 2 5 2 1 3 7 8 5 4 9 5 4 5 5 8 10 9 11 10 13 10 11 7 6 6 6 8 10 11 12 13 13 13 13 13 13 14 16 17 18 19 20 21 21 22 20 15 15 14 13 14 15 17 18 20 20 25 27 27 25 26 26 26 25 24 25 26 33 39 35 30
4 2 2 2 2 3 3 2 3 3 1 1 2 5 2 6 6 6 6 7 5 4 5 8 4 10 4 7 9 8 8 8 12 11 12 10 7 6 6 7 10 12 12 13 13 14 13 13 13 14 15 16 18 16 18 19 21 22 22 20 15 15 15 14 14 16 18 19 20 22 26 26 26 26 27 27 26 25 24 23 24 30 38 37 31
5 5 4 3 4 4 4 2 3 3 0 2 3 3 3 2 4 4 4 9 6 5 9 5 5 6 8 9 9 10 9 10 11 11 12 8 7 7 8 10 11 13 14 15 16 15 15 14 14 14 15 16 15 17 18 17 18 21 20 17 16 16 16 14 14 15 17 18 19 23 25 26 26 26 26 26 26 24 23 23 25 27 34 37 35
6 6 6 5 5 4 3 4 4 3 2 1 2 2 1 1 4 4 4 6 3 5 8 5 5 4 6 8 9 11 11 11 10 13 13 14 13 12 12 13 14 15 16 15 16 15 15 14 14 14 13 13 16 17 17 17 17 17 17 16 15 16 15 12 13 14 16 18 19 23 25 26 27 26 25 25 25 24 24 23 24 25 28 33 40
6 6 7 7 6 4 5 5 4 4 3 3 2 3 2 3 4 3 4 4 2 3 6 7 7 8 9 11 12 12 12 12 14 14 14 14 14 13 15 15 15 14 16 15 13 13 12 12 12 13 14 15 16 17 16 16 16 17 16 15 15 15 13 10 11 13 15 17 18 22 24 26 27 27 27 27 25 25 24 23 25 27 28 31 38
7 7 7 7 6 6 6 6 6 5 4 4 4 6 4 4 3 4 4 4 4 4 6 7 8 8 10 11 12 12 12 13 14 14 14 13 14 14 15 16 14 15 15 14 14 14 13 12 12 14 15 15 15 16 15 15 17 16 15 14 14 13 12 10 10 12 13 15 17 21 23 25 26 27 28 28 26 25 25 24 25 27 30 33 38
8 7 7 8 8 7 6 6 7 6 5 7 5 5 5 5 5 5 4 4 4 5 6 8 9 9 10 10 10 10 11 13 13 14 14 14 14 16 16 15 15 16 16 14 15 14 15 14 14 15 16 16 16 15 14 14 15 16 14 13 12 12 11 10 10 11 12 14 16 20 22 24 26 27 28 28 27 26 25 22 22 22 24 26 29
6 7 9 9 9 8 6 8 7 6 6 5 4 5 6 7 8 7 5 4 4 6 7 8 9 9 9 9 9 11 12 13 14 14 15 15 17 18 17 15 16 17 16 13 15 16 16 15 16 17 16 16 16 15 13 13 13 13 12 12 11 11 10 9 10 11 11 12 14 17 21 23 25 26 26 26 25 24 22 20 19 20 21 23 25
7 8 9 10 10 9 8 8 8 6 6 6 5 6 8 8 7 7 8 6 6 7 7 9 10 10 10 10 11 12 14 15 15 16 17 18 19 18 17 17 18 18 17 16 14 16 16 15 17 17 16 16 15 15 14 13 12 10 10 11 10 9 8 9 10 10 10 11 13 16 20 22 24 25 24 23 22 21 19 17 17 18 20 21 22
8 8 9 9 9 8 8 9 8 7 7 6 7 7 8 7 7 9 9 7 8 9 9 11 12 12 12 12 13 14 16 16 16 18 18 19 20 19 18 18 19 18 16 17 16 15 15 15 17 17 16 16 16 14 12 13 11 9 9 10 9 8 7 8 10 10 10 11 13 14 17 19 21 23 22 21 20 19 17 15 16 18 19 20 21
6 8 9 9 10 8 9 9 8 8 6 7 8 8 8 8 9 10 9 9 10 11 12 14 14 14 14 14 15 16 16 17 16 17 18 18 19 18 19 19 19 17 15 16 15 15 13 13 15 17 17 17 16 14 12 12 11 10 8 9 9 7 8 8 9 9 10 11 12 13 14 15 16 17 19 18 18 17 16 16 17 18 19 20 19
6 8 9 9 10 9 9 9 8 8 7 7 9 9 9 9 9 10 10 11 13 14 15 16 16 16 16 17 17 18 17 17 17 17 17 17 17 18 19 20 19 16 14 14 15 14 12 12 12 14 16 15 15 14 12 11 10 9 8 8 6 6 7 8 9 9 10 11 11 12 12 12 13 13 13 14 15 15 15 16 17 18 19 19 19
4 6 7 9 10 9 9 8 8 8 8 9 10 10 10 10 10 11 12 13 14 17 18 19 19 19 19 19 19 20 19 17 17 16 16 15 16 19 20 19 17 15 15 14 13 12 11 10 10 11 14 14 14 14 12 10 9 9 7 6 5 6 7 8 9 9 10 10 11 11 11 11 11 11 11 12 12 13 14 16 17 18 19 19 19
3 3 6 9 8 8 8 8 9 9 10 10 10 11 11 12 12 12 13 13 15 17 20 21 21 21 20 20 20 21 19 18 16 16 16 16 18 18 19 18 16 15 14 13 12 11 11 10 9 9 12 12 14 14 12 13 10 8 6 5 4 6 6 8 8 9 9 10 10 10 9 9 9 10 11 11 12 13 13 15 16 17 18 19 19
2 3 7 8 7 7 9 9 10 10 12 11 11 12 12 13 14 13 13 15 16 17 19 21 21 21 21 20 20 20 18 17 16 16 18 17 19 19 18 17 15 14 13 12 11 10 10 10 8 8 11 12 13 12 11 11 12 10 7 5 4 4 6 7 7 8 9 9 9 9 8 8 9 10 11 13 13 14 14 15 16 17 17 16 16
5 5 6 7 8 7 9 10 10 11 11 13 13 13 13 14 15 15 14 15 16 17 18 20 20 20 20 20 19 19 17 17 16 16 17 17 17 18 17 16 15 13 11 11 10 9 10 11 9 7 10 12 12 13 10 11 11 10 7 4 3 3 5 6 6 6 7 7 8 8 8 8 9 11 12 13 14 15 14 15 16 17 16 15 14
4 5 6 7 8 8 9 10 12 12 12 13 13 13 13 14 16 16 15 16 16 18 18 18 18 19 19 19 18 18 16 17 17 16 16 16 15 16 16 15 13 11 10 10 8 7 8 10 11 7 6 10 10 11 12 10 11 9 7 5 2 1 3 6 5 6 6 7 7 7 7 7 9 10 12 14 15 16 16 15 16 16 15 15 15
4 5 6 7 9 9 9 10 11 12 12 13 13 14 14 14 16 16 17 17 17 18 18 17 17 17 17 17 17 17 16 16 16 14 14 14 14 15 16 14 12 11 9 9 8 7 6 7 11 7 6 8 8 8 10 11 9 9 7 5 5 3 5 5 5 5 7 7 6 6 7 7 8 10 11 13 15 16 17 17 16 15 15 14 14
3 5 6 7 8 9 9 10 11 12 12 12 13 13 13 15 16 16 16 17 17 18 17 16 16 15 16 16 15 16 15 15 14 12 12 14 14 14 14 12 11 10 10 9 9 9 9 7 7 8 6 7 8 8 8 10 9 9 6 5 5 5 4 4 5 6 7 7 6 6 7 7 9 9 10 12 14 15 16 17 17 17 17 15 13
3 4 6 7 7 9 9 11 12 12 13 13 12 12 14 15 16 17 16 17 17 16 16 16 14 14 14 13 13 13 14 13 12 11 11 12 11 11 10 10 9 10 9 10 10 9 9 10 8 6 8 9 7 6 6 8 6 6 7 7 5 4 4 1 1 3 4 4 5 5 6 7 9 9 10 12 14 16 17 17 17 17 17 16 14
3 3 6 8 8 9 9 11 13 13 13 13 13 13 15 15 17 16 17 18 17 16 15 15 14 13 12 11 11 11 11 11 10 9 9 9 8 7 6 8 8 8 8 9 8 9 8 7 7 5 7 8 7 7 6 6 5 7 9 8 7 4 3 2 2 1 1 2 4 4 6 8 9 10 10 12 14 15 16 17 16 16 16 16 15
4 3 5 8 8 8 9 11 12 14 14 14 14 15 16 16 16 16 16 16 16 15 15 15 14 13 11 10 10 9 9 9 7 7 7 6 5 5 6 7 7 7 8 8 9 7 8 8 8 7 5 6 7 7 9 7 7 4 5 9 9 8 5 3 3 3 2 2 3 5 7 8 9 10 11 12 13 13 15 16 16 16 16 15 15
3 3 4 6 8 9 10 10 12 13 15 15 14 16 16 16 15 15 14 15 17 15 15 13 12 11 10 8 8 7 7 6 6 5 5 5 5 4 6 6 6 7 8 9 7 8 8 9 9 8 9 6 7 6 8 7 3 3 1 3 6 6 6 6 3 4 4 1 3 6 7 8 9 8 11 12 13 13 14 15 14 14 15 14 14
4 4 4 5 8 10 10 9 11 13 14 15 14 15 15 15 15 13 13 13 14 13 15 13 10 9 8 8 7 6 6 6 5 5 4 4 3 4 5 5 7 7 6 7 9 9 9 9 9 9 6 8 9 8 6 7 2 1 4 4 3 3 4 3 4 2 1 1 3 6 8 8 9 9 9 11 13 13 14 14 13 13 13 13 13
4 4 3 4 7 8 9 9 9 11 12 13 13 13 13 14 15 15 13 14 14 11 10 10 9 8 7 7 7 6 5 5 5 4 4 4 3 4 5 5 6 6 5 6 8 8 8 8 8 9 9 5 9 8 7 6 6 4 3 3 4 3 1 2 4 2 3 1 2 3 7 7 6 7 9 11 12 14 13 13 13 13 12 12 11
4 5 3 2 5 7 9 10 10 10 10 11 10 10 10 10 10 9 9 9 9 7 8 8 8 7 7 5 5 4 4 4 4 3 3 3 4 5 5 4 5 5 5 6 4 7 9 9 9 7 8 7 5 8 8 7 5 4 3 2 1 2 1 1 2 2 4 2 1 4 6 6 6 7 8 10 11 12 13 12 12 12 12 10 10
5 5 5 4 4 6 8 9 10 10 9 9 9 9 8 8 7 7 7 6 6 9 8 7 5 6 4 3 3 3 3 2 4 3 3 4 3 4 4 5 6 6 5 4 6 5 7 8 9 8 8 6 5 8 8 7 6 4 6 5 3 2 2 3 1 1 2 1 5 4 6 5 5 7 8 10 11 12 12 12 12 12 11 9 9
4 5 6 6 5 5 7 8 10 10 9 9 8 8 7 7 6 6 5 5 4 5 5 5 4 4 2 2 2 3 3 2 3 4 4 4 3 3 4 4 5 6 5 4 5 5 5 6 8 9 9 7 6 6 7 7 6 7 6 6 5 5 4 5 4 1 2 4 4 4 7 6 6 9 9 9 9 10 10 10 11 10 10 10 8
5 5 5 6 6 6 6 8 8 8 9 7 6 7 7 6 5 5 5 5 3 3 3 3 2 2 1 1 2 3 3 3 3 4 5 4 4 4 4 4 5 6 5 5 5 4 5 5 6 7 7 8 7 7 7 8 8 8 8 6 5 6 6 7 6 6 5 5 3 6 5 6 8 9 9 12 11 11 11 11 10 11 12 11 9
5 5 6 8 7 8 7 6 7 8 8 7 7 6 6 7 5 5 3 4 4 5 3 2 1 1 2 3 3 3 3 3 4 5 6 5 5 4 4 5 6 6 6 4 4 4 5 6 7 6 6 7 9 7 8 7 8 8 7 4 8 7 7 6 7 7 8 7 5 6 7 8 9 9 10 8 7 7 8 9 11 11 10 9 8
8 6 7 7 8 8 7 6 6 8 8 7 8 6 7 7 5 4 3 4 4 4 4 2 2 1 2 2 2 3 3 4 3 4 5 5 5 4 4 5 5 6 7 4 4 4 5 6 8 6 6 7 8 9 9 9 8 9 10 9 8 7 5 4 3 4 6 7 8 6 8 10 10 8 9 8 7 6 6 8 7 6 7 8 8
Wind_Direction
90 84 95 83 78 80 72 68 88 128 142 72 39 21 35 313 300 302 314 322 272 267 268 267 275 275 270 272 272 273 273 273 277 278 276 268 263 258 251 253 247 251 261 264 278 278 295 303 306 304 290 275 264 243 251 262 260 259 261 266 260 228 169 142 126 106 93 91 80 66 76 87 81 65 53 39 37 33 26 25 29 32 29 6 343
50 82 88 98 75 66 58 57 89 140 152 145 148 151 188 184 201 204 222 254 251 259 270 277 279 280 276 273 274 277 278 275 273 270 270 268 256 255 250 246 238 219 241 256 266 293 295 291 292 291 274 244 243 271 281 300 298 304 308 301 284 122 123 128 129 131 131 125 124 119 103 88 72 56 45 38 35 32 32 28 23 34 32 7 355
25 74 97 93 57 55 53 62 91 177 151 135 137 161 209 144 226 233 236 250 254 257 263 274 280 283 282 278 279 277 271 268 265 263 261 258 252 244 245 241 248 248 232 243 274 285 296 294 291 280 241 214 246 281 269 253 310 318 320 329 109 118 125 127 125 126 130 124 118 115 114 93 66 52 39 35 32 32 30 26 24 26 26 10 7
346 89 110 84 47 74 80 91 157 162 138 129 175 202 225 186 219 244 254 254 254 256 261 271 279 284 280 278 272 255 249 247 252 256 255 254 246 235 248 256 238 240 247 271 268 294 294 292 289 269 238 228 231 229 242 322 331 343 21 97 114 117 121 121 118 115 116 113 115 110 93 91 79 48 37 34 32 29 28 27 24 21 17 13 7
331 55 118 123 144 134 112 122 105 203 143 194 219 237 239 229 234 234 233 255 253 254 259 263 267 269 273 276 267 255 238 236 233 239 252 253 258 255 264 264 270 257 264 224 268 288 285 281 273 237 223 233 254 308 330 346 11 69 95 110 117 122 118 111 106 107 107 112 117 104 93 87 76 61 41 35 34 32 29 28 25 24 20 15 12
329 343 148 140 146 130 91 103 83 10 240 235 275 258 244 233 231 233 244 255 258 253 253 258 263 270 275 274 267 252 238 224 225 229 246 262 275 288 273 271 257 277 263 340 306 290 279 268 245 220 221 238 276 282 319 12 68 94 102 107 108 109 101 98 99 103 108 116 115 93 90 80 71 66 53 36 36 35 33 31 29 27 23 18 17
301 268 255 242 157 124 37 78 44 14 318 295 265 247 243 249 263 257 246 250 260 254 247 250 255 262 272 279 269 251 246 240 233 228 233 256 263 263 277 271 258 243 278 284 291 272 262 240 222 205 229 242 252 285 38 60 95 108 106 100 93 90 90 92 96 100 109 100 94 91 84 80 73 60 49 38 33 31 31 33 32 30 26 23 20
278 246 252 257 213 78 354 22 33 324 309 286 266 263 255 245 240 253 262 265 252 251 248 250 250 253 259 273 278 253 239 251 252 243 228 244 261 267 254 250 239 252 232 236 265 261 236 226 202 187 213 207 215 232 203 97 108 111 105 91 80 81 84 89 90 95 105 94 91 85 80 75 69 64 50 43 34 30 30 33 35 34 31 27 25
309 317 285 266 211 330 328 328 322 280 273 262 256 257 254 251 251 249 247 245 252 249 251 246 250 249 253 273 283 250 232 227 225 233 236 237 262 266 261 262 260 255 262 159 257 252 221 208 183 184 196 206 239 197 155 143 144 136 109 80 75 75 80 87 92 97 95 91 90 83 79 74 66 55 49 41 37 32 32 33 35 34 32 30 28
317 271 276 242 168 323 318 314 303 271 261 259 255 253 249 249 253 252 247 237 214 204 250 254 253 251 249 269 262 238 227 219 214 209 215 238 261 271 270 275 268 275 283 248 252 239 211 189 178 179 184 179 214 129 172 155 146 138 118 90 76 76 79 86 90 92 89 89 87 85 72 63 66 62 44 39 37 37 35 32 34 34 34 32 30
318 324 303 267 198 335 314 317 301 272 275 269 267 263 262 255 250 248 239 243 253 220 242 255 258 257 257 262 262 238 223 217 209 195 211 244 257 263 268 267 271 275 321 267 259 231 198 179 171 171 175 187 149 134 138 146 148 136 116 94 82 79 80 82 90 93 90 88 86 80 78 67 64 59 43 34 32 35 39 39 33 31 30 32 32
344 359 2 295 352 331 327 323 317 348 305 291 296 283 274 271 262 242 249 258 235 234 239 232 248 247 248 259 257 232 220 218 216 207 224 241 250 260 267 268 265 300 323 281 247 211 187 174 172 173 170 166 150 136 138 142 143 136 114 91 84 82 80 77 88 90 91 90 86 81 76 71 65 54 42 33 34 34 33 35 35 30 30 34 30
1 18 38 95 128 358 345 342 341 342 330 329 325 306 292 290 254 254 252 250 239 245 245 226 226 239 232 241 250 232 216 217 225 228 229 234 243 247 256 272 291 290 291 276 237 200 183 174 175 174 170 158 135 132 136 140 141 135 123 96 82 82 78 77 89 88 90 88 83 81 77 72 67 60 39 31 33 33 31 31 29 24 25 27 31
1 31 93 101 80 5 357 351 338 335 337 342 326 304 252 223 233 218 251 264 256 252 248 257 244 247 247 249 252 251 236 223 225 227 228 233 245 252 262 279 272 273 265 242 213 199 180 177 177 172 164 144 130 133 139 137 137 130 118 110 94 80 80 81 85 89 87 85 79 76 74 68 62 61 46 41 31 27 29 29 25 22 21 23 28
350 353 66 115 75 64 356 339 330 331 337 305 270 243 235 256 279 282 269 273 276 259 262 264 259 254 260 262 267 264 254 243 239 235 226 229 250 258 260 257 255 254 243 212 205 192 180 181 177 166 152 136 130 137 139 136 133 127 120 113 105 86 75 89 89 87 82 78 77 74 71 66 56 50 42 34 33 37 32 30 26 23 19 21 26
324 318 282 200 168 158 188 295 311 304 297 277 254 251 265 279 295 282 283 318 283 276 271 262 254 245 253 254 252 256 253 242 239 241 235 238 239 242 244 251 241 224 200 195 198 185 179 182 175 158 143 133 133 139 138 135 132 126 122 120 118 96 72 81 87 84 79 77 75 72 69 65 58 51 38 32 32 27 25 28 33 33 27 23 25
284 258 250 231 215 204 215 216 234 271 239 252 279 292 306 300 325 299 266 277 273 264 266 243 245 216 221 249 253 249 251 240 231 238 243 227 226 229 243 237 228 201 170 185 187 180 182 180 168 154 137 130 135 139 135 132 130 122 119 119 120 102 75 71 82 79 75 71 71 71 67 66 63 53 43 39 36 33 29 29 34 37 36 36 32
248 250 249 234 218 215 233 228 196 198 164 234 291 308 299 281 275 269 284 323 308 270 256 234 244 248 221 261 249 234 234 226 217 233 239 235 231 229 228 229 215 179 159 175 179 181 183 175 165 149 135 130 137 139 133 130 127 121 118 118 118 116 81 69 82 76 72 69 70 69 67 66 61 56 50 44 42 38 35 37 38 42 44 44 42
227 244 245 221 204 214 225 235 118 104 55 101 181 251 275 268 262 275 293 339 250 271 291 281 235 212 219 229 232 231 217 206 200 195 234 236 227 220 222 214 202 167 157 171 177 181 179 168 157 144 131 132 138 137 133 130 125 120 120 117 119 116 86 78 81 75 71 72 69 69 67 70 66 56 53 48 45 41 40 39 42 46 47 48 45
214 227 234 186 144 169 157 55 90 97 108 170 234 202 246 291 254 260 282 264 254 246 332 290 274 244 218 236 246 223 216 201 193 166 223 233 221 203 209 199 181 155 156 168 176 179 172 162 153 140 133 136 136 137 134 128 122 120 121 123 119 114 94 85 74 74 73 71 66 68 69 69 69 60 57 53 48 44 41 43 45 52 53 51 46
82 34 90 107 120 115 129 127 104 92 201 232 219 148 83 293 240 310 273 256 270 359 276 274 266 267 223 229 237 220 201 174 171 155 213 207 204 204 196 182 166 153 160 172 176 174 165 156 146 137 133 135 140 137 130 124 122 120 121 123 117 104 88 80 76 75 73 71 67 66 69 70 69 62 58 54 50 45 39 40 45 54 58 54 50
52 63 50 61 73 97 104 123 118 101 70 315 40 79 126 264 162 164 192 230 234 209 222 237 201 181 235 202 195 208 195 173 158 178 187 194 185 198 178 174 162 155 163 170 171 166 160 151 142 136 137 139 139 127 120 120 121 120 120 121 107 99 88 81 76 75 72 70 69 68 68 71 68 62 58 55 51 44 37 34 38 55 64 56 43
55 59 63 59 60 65 91 94 84 86 35 320 33 76 224 263 96 126 197 239 196 159 174 227 191 169 178 176 192 194 193 182 177 181 183 180 174 182 174 171 162 158 164 167 167 163 157 151 140 132 132 133 130 122 117 114 114 118 117 112 105 102 93 82 77 75 74 72 70 68 68 70 68 64 63 56 51 45 39 34 33 46 63 66 57
59 64 57 67 61 63 66 50 51 66 35 39 55 84 297 49 77 116 190 233 157 160 161 210 218 174 179 164 184 190 185 180 191 195 185 173 168 169 176 173 165 161 167 160 159 153 152 139 131 129 122 121 124 122 118 115 113 106 105 105 104 101 99 84 78 76 75 73 71 69 69 69 68 66 64 59 52 46 41 35 32 38 52 70 72
72 71 63 59 62 50 44 44 48 48 23 33 66 77 35 68 87 124 188 203 218 185 181 193 199 183 172 171 179 182 180 181 180 182 177 169 164 159 159 153 144 148 156 154 149 139 133 124 117 116 114 118 122 119 119 118 109 107 104 103 101 100 98 82 77 76 75 74 72 70 68 68 68 67 65 61 56 49 44 37 34 33 37 43 69
64 69 62 63 62 51 43 48 37 33 27 33 37 48 56 73 96 129 167 178 188 196 177 174 182 178 174 175 175 176 176 176 176 175 169 161 155 151 150 143 143 145 147 150 142 135 129 119 114 113 112 113 114 118 120 116 110 106 102 99 99 100 98 80 72 72 74 74 73 70 68 67 67 66 65 63 58 53 46 40 38 35 35 38 42
64 68 72 69 63 57 51 46 43 37 22 17 30 59 69 56 77 94 119 146 162 167 169 167 173 175 171 166 170 168 169 167 166 164 159 152 147 144 143 140 142 144 147 149 140 134 128 119 111 106 106 108 112 115 116 112 102 102 100 97 97 96 94 78 67 65 68 71 72 71 67 65 65 64 64 63 60 56 50 44 42 39 35 35 40
57 51 63 67 67 57 55 47 48 34 43 36 32 46 54 49 48 66 91 99 138 148 153 159 164 161 158 156 155 158 155 155 153 152 148 146 143 140 138 142 143 144 145 147 139 133 127 119 111 106 107 109 113 116 116 109 103 93 95 93 92 92 90 77 66 62 63 66 69 71 69 64 62 61 61 62 61 58 53 45 39 34 30 32 35
35 43 54 60 60 60 52 49 47 36 46 48 40 49 44 50 64 60 71 76 120 126 136 143 147 146 146 146 145 146 146 143 144 144 143 142 139 139 141 143 143 146 147 141 138 131 126 120 114 109 108 109 112 115 117 114 106 95 84 87 83 81 82 78 74 69 65 61 61 66 69 66 61 59 59 59 58 56 52 41 30 25 25 29 31
31 36 48 57 61 59 54 55 51 48 49 54 58 51 53 62 66 69 79 98 106 113 122 129 135 137 136 136 137 138 138 137 139 140 139 137 139 141 144 145 145 144 144 137 133 130 124 121 114 112 111 109 110 114 122 122 121 111 87 78 67 65 64 64 70 69 65 61 57 57 66 66 62 56 54 53 53 51 48 36 21 17 19 22 27
19 34 48 54 63 51 59 61 59 50 55 60 63 61 63 66 72 77 90 99 102 107 118 124 127 128 126 127 131 133 135 135 134 135 136 137 139 143 143 141 141 141 138 133 134 127 122 113 112 113 112 110 109 114 117 119 118 117 99 76 66 52 56 61 64 61 60 59 54 50 55 64 64 58 51 48 46 43 39 27 15 14 15 17 21
18 37 54 55 58 50 56 59 64 65 62 63 69 69 72 72 77 87 91 97 102 108 114 118 120 121 123 123 126 131 130 130 130 130 130 135 140 141 137 138 136 135 135 131 132 129 121 115 111 106 105 106 113 116 117 114 119 117 108 83 66 51 55 59 61 57 56 54 52 49 47 46 56 59 50 43 37 32 26 14 10 10 13 14 18
35 30 57 55 55 52 57 61 67 71 66 69 79 84 84 83 84 91 91 98 105 110 113 114 114 116 119 123 127 129 128 126 126 127 132 133 138 136 136 134 131 131 132 132 135 138 132 129 119 112 111 114 122 126 121 114 123 129 116 84 55 53 56 57 59 57 52 47 44 46 43 41 38 45 45 35 31 25 14 9 5 7 9 12 17
22 39 54 60 65 69 75 73 66 72 71 79 85 91 90 89 91 93 95 100 106 111 114 116 118 120 122 123 126 125 126 125 126 130 132 134 133 135 132 130 129 132 132 136 143 142 142 141 131 127 125 127 130 125 127 132 130 121 121 106 50 47 39 49 53 56 49 43 41 40 37 35 32 29 27 28 24 17 14 8 5 8 10 11 15
58 34 47 63 63 70 72 78 68 73 74 80 86 90 91 91 91 96 99 101 107 110 116 120 120 121 122 122 122 121 122 121 124 124 125 124 129 130 127 123 128 130 134 136 140 139 143 142 133 137 125 130 128 123 132 127 126 128 126 112 70 53 38 44 47 55 52 44 40 37 30 27 22 22 20 17 13 15 17 13 12 9 13 15 15
50 42 51 66 68 69 75 82 75 74 81 84 89 92 90 89 91 95 101 103 105 109 113 115 116 118 116 115 113 113 113 113 115 117 116 118 119 120 119 124 126 126 131 136 140 152 142 137 134 133 141 133 136 136 136 126 123 121 124 122 80 35 43 49 52 56 53 43 40 38 27 21 16 15 17 11 9 11 18 17 17 16 14 17 21
69 52 51 63 77 72 76 81 73 76 83 87 93 97 97 91 90 96 97 102 105 107 111 113 115 113 112 110 108 108 109 109 109 111 113 113 114 115 117 120 120 122 127 131 134 137 141 135 139 141 122 122 135 130 131 131 125 121 122 137 139 116 80 54 40 44 41 35 36 28 22 17 13 14 8 7 5 8 12 17 22 23 22 20 22
82 71 66 65 72 79 86 85 89 91 92 91 95 100 103 101 100 99 96 99 101 106 109 111 109 110 109 106 105 107 109 108 109 109 108 112 113 113 117 119 120 121 129 124 137 126 134 148 150 144 135 129 127 127 125 127 123 121 132 150 139 140 94 60 18 19 23 37 20 20 15 9 7 5 3 2 4 6 12 17 22 27 28 30 28
93 79 80 90 93 94 99 92 91 97 98 99 103 110 115 117 114 111 102 101 107 107 108 108 107 108 105 103 106 108 112 109 107 105 103 107 108 110 110 116 121 126 128 140 144 144 146 159 166 139 129 109 83 102 108 114 121 126 137 144 129 130 99 63 9 357 15 21 12 3 350 2 0 1 4 4 5 9 15 17 21 23 30 40 38
103 100 91 95 96 101 103 103 99 102 106 109 110 112 115 112 113 121 116 108 109 109 108 106 109 105 106 106 106 107 108 109 103 101 98 99 100 103 104 125 125 123 145 153 150 148 150 157 159 137 130 118 96 99 111 119 118 150 144 142 133 133 127 117 37 12 8 7 359 352 1 356 354 357 1 7 9 10 14 21 21 23 30 39 44
124 100 97 97 92 93 96 94 101 105 105 107 109 107 110 114 121 113 113 110 110 113 111 111 109 107 105 106 103 103 103 102 102 96 91 96 99 106 110 114 121 131 149 147 137 143 143 141 135 131 134 138 117 128 157 149 164 140 143 150 130 132 119 172 175 222 306 347 331 339 356 8 6 358 5 12 15 11 13 19 20 22 30 37 42
94 90 92 102 104 101 96 103 110 108 107 108 111 110 111 110 113 110 116 117 115 115 115 112 108 109 104 102 99 100 95 92 99 95 96 92 100 107 106 110 130 142 144 142 150 156 154 152 143 152 135 140 133 141 145 149 170 151 143 135 141 139 144 164 224 226 242 275 340 350 356 11 18 1 3 12 18 14 14 15 16 21 29 35 42
112 81 110 121 115 112 110 113 113 113 114 115 119 115 119 118 118 118 118 125 124 119 114 112 112 109 106 103 105 101 95 92 96 96 97 90 90 98 104 133 140 134 137 143 149 159 159 149 150 161 152 139 124 122 149 151 140 141 153 150 145 161 150 172 187 224 226 298 350 342 348 9 16 6 360 9 16 16 12 10 16 22 27 35 41
151 140 130 118 124 120 119 116 114 118 119 119 120 121 123 124 125 125 123 129 122 129 134 135 131 132 117 116 112 107 99 96 97 98 103 88 77 85 115 127 135 129 127 142 148 157 157 154 154 164 161 164 150 137 146 156 162 153 152 178 137 180 168 157 174 150 238 347 302 332 340 2 1 355 0 16 11 8 9 6 17 27 27 34 43
134 117 109 118 129 114 119 118 118 119 126 124 124 130 136 142 144 149 147 148 152 148 141 129 121 120 126 118 103 104 102 100 102 103 103 86 90 89 95 114 125 124 128 145 148 146 145 144 148 170 180 165 157 142 136 159 178 176 263 227 181 174 120 91 183 150 184 267 266 310 328 345 344 343 3 17 3 -0 3 6 13 25 29 34 47
132 122 114 116 139 134 136 137 137 137 133 128 133 136 135 138 147 144 138 133 133 127 104 99 105 103 94 112 113 103 100 107 111 104 101 112 84 87 98 112 119 121 127 135 147 157 154 159 156 160 181 160 152 174 171 166 183 182 190 183 186 190 155 140 233 135 136 319 314 302 311 319 329 337 357 14 11 1 359 7 8 23 32 36 49
129 154 155 154 159 155 150 146 144 145 147 144 143 145 149 145 134 129 127 120 118 120 120 118 106 109 127 97 91 101 87 83 107 103 94 102 99 100 112 116 126 124 135 154 133 145 156 151 154 165 166 171 185 199 190 155 166 172 204 202 201 177 311 274 134 238 165 201 255 286 299 299 322 333 351 12 14 4 1 2 8 16 35 41 53
161 176 167 169 172 169 164 156 157 158 157 162 157 155 157 152 149 146 142 132 119 106 109 115 126 142 120 96 94 91 85 83 90 94 105 112 123 133 134 126 124 137 136 125 126 148 168 165 168 165 170 175 186 205 196 177 203 162 193 213 204 211 210 211 247 234 263 259 245 268 320 325 331 340 347 3 10 3 4 8 7 18 37 48 54
184 181 174 173 176 180 178 171 166 170 169 173 176 167 166 163 163 171 161 150 150 135 149 164 169 154 72 101 63 73 85 95 103 109 113 119 130 133 130 126 130 130 134 141 147 152 146 164 169 170 177 172 164 176 195 183 177 180 185 199 203 216 211 224 238 249 248 257 270 303 323 331 333 329 344 2 3 357 359 8 10 22 37 49 58
182 185 189 191 186 188 185 180 170 180 185 184 188 187 184 188 187 183 188 189 194 211 220 239 214 225 38 39 49 61 74 86 105 118 120 122 123 135 136 125 129 142 153 161 168 154 147 146 146 171 182 170 165 172 193 180 176 174 205 211 212 196 213 222 234 249 260 270 299 310 322 315 320 350 351 358 357 352 1 6 10 20 37 52 65
196 200 199 196 196 195 194 183 169 189 202 200 201 203 204 211 206 212 224 246 243 256 262 251 262 259 47 40 25 66 79 79 105 116 114 121 119 132 138 133 147 160 166 175 152 151 151 146 157 167 180 169 168 185 200 197 193 190 203 218 228 238 240 254 261 273 295 306 296 305 320 332 337 335 350 355 356 359 8 12 17 28 47 58 68